Regional Weather Roundup
Issued by NWS Boston, MA

Current Version | Previous Version | Text Only | Print | Product List | Glossary Off
Versions: 1 2 3 4 5 6 7 8 9 10 11 12 13 14 15 16 17 18 19 20 21 22 23 24 25 26 27 28 29 30 31 32 33 34 35 36 37 38 39 40 41 42 43 44 45 46 47 48 49 50
452 ASUS41 KBOX 191410 RWRBOX REGIONAL WEATHER ROUNDUP NATIONAL WEATHER SERVICE BOSTON/NORTON MA 1000 AM EDT FRI OCT 19 2018 NOTE: "FAIR" INDICATES FEW OR NO CLOUDS BELOW 12,000 FEET WITH NO SIGNIFICANT WEATHER AND/OR OBSTRUCTIONS TO VISIBILITY. MAZALL-191500- EASTERN MASSACHUSETTS CITY SKY/WX TMP DP RH WIND PRES REMARKS BOSTON FAIR 48 31 51 SW14 30.20F BEVERLY FAIR 45 31 58 SW9 30.19F LAWRENCE FAIR 45 30 55 SW13 30.21F BEDFORD FAIR 47 31 53 SW10 30.19F BLUE HILL N/A 44 29 55 SW12G22 30.18F NORWOOD FAIR 49 31 49 SW9 30.21F MARSHFIELD FAIR 48 30 49 SW12G18 30.22F PLYMOUTH FAIR 50 31 48 SW15 30.23F TAUNTON FAIR 49 30 48 SW8 30.23F NEW BEDFORD FAIR 50 32 50 W13 30.23F $$ MAZALL-191500- CAPE COD AND THE ISLANDS CITY SKY/WX TMP DP RH WIND PRES REMARKS FALMOUTH FAIR 50 36 57 W12G18 30.25F HYANNIS FAIR 51 33 50 W12 30.23F CHATHAM FAIR 49 32 52 W9G20 30.25F PROVINCETOWN FAIR 48 34 58 W16G23 30.23F NANTUCKET FAIR 52 36 54 W15 30.25F MARTHAS VNYRD FAIR 53 39 59 SW10G21 30.25F $$ MAZALL-191500- CENTRAL AND WESTERN MASSACHUSETTS CITY SKY/WX TMP DP RH WIND PRES REMARKS WORCESTER FAIR 43 30 60 W15 30.18F FITCHBURG FAIR 44 29 55 SW10 30.19F ORANGE FAIR 44 29 55 S10 30.19F SPRINGFIELD MOSUNNY 43 30 60 S6 30.20F WESTFIELD FAIR 44 31 60 S8 30.21F NORTH ADAMS FAIR 48 35 60 W7 30.17F PITTSFIELD FAIR 44 30 57 SW6 30.17F $$ RIZALL-191500- RHODE ISLAND CITY SKY/WX TMP DP RH WIND PRES REMARKS PROVIDENCE FAIR 48 31 51 SW13 30.25F NEWPORT FAIR 48 31 51 W8 30.24F SMITHFIELD FAIR 46 30 53 SW8 30.22F WESTERLY FAIR 51 35 54 SW7 30.26F $$ CTZALL-191500- CONNECTICUT CITY SKY/WX TMP DP RH WIND PRES REMARKS BRADLEY INTL FAIR 44 31 60 S6 30.23F HARTFORD FAIR 46 32 58 SW5 30.24F BRIDGEPORT FAIR 49 32 52 W12G20 30.27F DANBURY FAIR 45 32 60 SW10 30.26F GROTON FAIR 51 36 56 W9 30.25F NEW HAVEN FAIR 49 34 56 W12 30.26F CHESTER FAIR 48 30 49 W8 30.24F MERIDEN FAIR 44 32 62 SE6 30.25F WILLIMANTIC FAIR 44 32 62 SW8 30.24F OXFORD FAIR 42 32 67 SW7 30.24F $$ MEZ002-015-021-024-NHZ003-005-008-011-012-014-VTZ005-008-191500- NORTHERN NEW ENGLAND CITY SKY/WX TMP DP RH WIND PRES REMARKS PORTLAND ME FAIR 44 30 57 SW7 30.14F BANGOR ME CLOUDY 38 24 57 S7 30.11F CONCORD NH FAIR 41 31 67 SE5 30.16F MANCHESTER NH FAIR 42 31 64 S7 30.16F NASHUA NH FAIR 45 33 63 VRB6 30.19F PORTSMOUTH NH MOSUNNY 44 30 58 SW7 30.15F JAFFREY NH FAIR 40 31 70 S9 30.16F KEENE NH N/A 39 32 76 CALM 30.17F BURLINGTON VT FAIR 46 33 60 S15G25 30.06F MT. WASHINGTON MOSUNNY 25 23 93 W58 N/A WCI 3 $$ NYZ052-076-191500- EASTERN NEW YORK CITY SKY/WX TMP DP RH WIND PRES REMARKS ALBANY FAIR 42 30 62 S9 30.20F NEW YORK CITY FAIR 51 30 44 SW10 30.29F $$ ANZALL-191500- MARINE OBSERVATIONS STATION/POSITION TIME TEMP WIND PRES VSBY WAVE AIR SEA DIR/SP/G HT/PER (UTC) (F) (DEG/KT/KT) (MB) (MI) (FT/S) BOSTON BUOY 1350 45 57 220/ 14/ 16 1022.5F 2/ 3 BUZZARDS BAY 1300 49 260/ 17/ 19 1025.0F NANTUCKET SOUND 1350 50 60 260/ 16/ 21 1024.3F 2/ 4 MASS BAY-STELLWA 1304 44 56 240/ 17/ 21 1022.2F 1 7/8 3/ 4 ISLE OF SHOALS 1300 40 230/ 16/ 17 1022.1F S OF BLOCK IS 1343 63 N/A 3/ 4 $$ ......................KEY......................... SKY/WX - SKY CONDITION/PRESENT WEATHER TMP - TEMPERATURE IN FAHRENHEIT DWPT - DEWPOINT IN FAHRENHEIT RH - RELATIVE HUMIDITY IN PERCENT WIND - DIRECTION AND SPEED IN MPH PRES - MEAN SEA LEVEL PRESSURE IN INCHES OF HG WCI - WIND CHILL INDEX VSB - VISIBILITY IN MILES HX - HEAT INDEX TC - TEMPERATURE IN CELSIUS VRB - VARIABLE WIND DIRECTION N/A - NOT AVAILABLE

USA.gov is the U.S. government's official web portal to all federal, state and local government web resources and services.